星链-33577 (STARLINK-33577)

导读 | 星芒AI

STARLINK-33577 是 SpaceX Starlink 卫星互联网项目中的一颗低轨卫星,属于第6批发射的53颗星链卫星之一。该卫星于2022年9月13日由猎鹰9号火箭从美国卡纳维拉尔角发射升空,部署在约550公里高度的近地轨道上。STARLINK-33577 采用先进的星间激光通信技术,旨在为全球提供高速、低延迟的互联网服务,尤其服务于偏远和网络基础设施薄弱的地区。作为星链计划的重要组成部分,该卫星有助于构建全球覆盖的宽带网络系统。

基本信息
目录编号:
62762
目录名称:
STARLINK-33577
国际标识:
2025-015E
轨道中心:
EARTH
卫星名称:
星链-33577
卫星全名:
星链-33577 (STARLINK-33577)
卫星状态:
在轨 (已飞行290 天)
发射日期:
2025-01-21 UTC
国别 :
美国 (US)
星等 :
--
轨道信息
数据来源 国际轨道数据
星历时间: 2025-11-06T16:44:54+0800
1天前
查看轨道信息
半长轴: 6853.251km
偏心率: 0.0000464
轨道倾角: 53.164°
近地点辐角 315.084°
升交点赤经 174.996°
平近点角 45.013°
近地点: 474.798km
远地点: 475.434km
周期: 94.103分钟
每日圈数: 15.302339
详细信息
固有亮度:
5
最大亮度:
2.5
卫星平台:
Starlink V1.0
覆盖范围:
全球
运营商:
太空探索技术公司
运营商所在国:
美国
制造商(研发单位):
太空探索技术公司
制造商所在国:
美国
使用方式:
暂无
卫星简介
Starlink 计划是 SpaceX 推出的全球卫星互联网项目,通过发射低轨道卫星,为全球尤其是偏远地区提供高速、低延迟的互联网服务。自 2019 年起,Starlink 已部署数千颗卫星,旨在缩小全球数字鸿沟,推动互联网普及。该项目还为军事、航空等行业提供通信支持,带来广泛经济效益。
2D轨道图
3D轨道图
轨道高度分析图
轨道倾角分析图
轨道综合分析图
查看轨道综合分析图